This is the latest recevied weather packets stored in our database for station/object I3RKE-10. If no packets are shown the sender has not sent any weather packets the latest 10 day(s).
| Time | Temp. | Humidity | Pressure | Rain* | Wind** | Luminosity | Snow |
|---|---|---|---|---|---|---|---|
| 1777860702 | 12.78° C | 66% | 1010.6 hPa | - | - | - | - |
| 1777859801 | 12.78° C | 65% | 1010.6 hPa | - | - | - | - |
| 1777858901 | 12.78° C | 65% | 1010.7 hPa | - | - | - | - |
| 1777858001 | 13.33° C | 64% | 1010.7 hPa | - | - | - | - |
| 1777857098 | 13.33° C | 64% | 1010.7 hPa | - | - | - | - |
| 1777856198 | 13.33° C | 63% | 1010.6 hPa | - | - | - | - |
| 1777855298 | 13.89° C | 61% | 1010.8 hPa | - | - | - | - |
| 1777854398 | 14.44° C | 59% | 1010.8 hPa | - | - | - | - |
| 1777853497 | 15° C | 59% | 1010.9 hPa | - | - | - | - |
| 1777852597 | 15° C | 58% | 1010.8 hPa | - | - | - | - |
| 1777851697 | 15° C | 58% | 1010.8 hPa | - | - | - | - |
| 1777850797 | 15° C | 58% | 1010.8 hPa | - | - | - | - |
| 1777849897 | 14.44° C | 58% | 1010.8 hPa | - | - | - | - |
| 1777848997 | 15° C | 57% | 1010.9 hPa | - | - | - | - |
| 1777848097 | 15° C | 58% | 1010.9 hPa | - | - | - | - |
| 1777847197 | 15° C | 57% | 1011 hPa | - | - | - | - |
| 1777846297 | 15° C | 57% | 1010.8 hPa | - | - | - | - |
| 1777845397 | 14.44° C | 59% | 1010.8 hPa | - | - | - | - |
| 1777844497 | 15° C | 57% | 1010.9 hPa | - | - | - | - |
| 1777843597 | 15.56° C | 56% | 1010.9 hPa | - | - | - | - |
| 1777842696 | 15.56° C | 56% | 1010.8 hPa | - | - | - | - |
| 1777841796 | 16.11° C | 55% | 1010.7 hPa | - | - | - | - |
| 1777840896 | 16.67° C | 53% | 1010.7 hPa | - | - | - | - |
| 1777839996 | 16.67° C | 54% | 1010.8 hPa | - | - | - | - |
| 1777839096 | 17.22° C | 52% | 1010.7 hPa | - | - | - | - |
* Rain since midnight (hover to see other rain measurements)
** Current wind speed in m/s (hover to see current wind gust speed)